Temp
72 71 71 72 72 72 72 72 72 72 72 72 72 71 70 69 78 78 78 77 74 74 75 76 77 77 77 76 76 77 76 76 76
71 71 71 71 71 72 72 71 71 71 71 71 71 69 68 76 78 78 77 77 72 75 76 75 76 76 76 76 75 75 75 75 76
70 71 71 70 71 71 71 70 70 70 70 70 69 68 67 76 77 77 78 72 73 76 76 75 75 75 75 75 75 75 75 75 74
68 69 69 69 69 69 69 69 69 68 68 68 68 66 65 77 77 77 79 71 76 76 75 75 75 75 75 74 74 74 74 74 74
65 68 67 68 68 68 68 68 67 67 66 66 66 65 66 78 77 79 76 72 75 75 75 74 74 74 74 73 73 73 74 74 74
72 63 64 65 65 66 66 66 66 65 67 65 65 64 77 78 77 78 68 71 74 74 73 73 73 73 73 73 73 73 73 73 73
69 65 63 64 63 65 66 66 67 69 74 75 71 76 76 77 76 77 68 72 73 73 72 72 72 73 73 73 74 73 73 73 73
73 73 72 72 66 72 72 72 72 72 72 73 75 74 75 77 77 71 67 70 72 72 72 72 72 73 73 73 73 73 73 73 73
72 72 71 71 71 71 71 71 71 71 72 72 72 73 74 76 76 70 66 69 71 71 71 71 71 71 71 72 71 71 71 71 71
70 70 70 70 70 70 70 71 71 71 71 72 71 71 73 75 75 75 64 66 68 69 70 70 70 71 71 71 71 70 71 71 70
68 69 68 68 69 69 69 69 69 70 70 70 70 70 71 72 72 74 69 63 64 67 68 69 69 70 70 70 70 70 70 70 70
67 68 68 67 68 68 69 69 70 69 69 69 69 70 70 72 71 71 71 71 62 64 65 66 67 67 69 69 69 69 69 69 69
68 68 67 67 68 67 68 67 67 67 67 68 68 69 70 70 69 66 66 68 71 67 62 62 63 65 66 68 68 68 68 68 69
67 66 66 67 66 66 66 66 65 65 65 66 68 68 65 65 66 63 66 67 68 69 64 60 60 62 64 65 66 66 67 67 68
66 66 64 65 65 65 65 64 65 64 63 65 66 67 66 64 61 64 67 67 66 66 66 67 66 59 61 62 63 64 65 66 67
64 65 64 64 63 62 63 64 62 63 63 64 65 66 66 65 67 68 67 65 65 65 64 65 65 66 60 60 60 62 63 65 66
64 63 63 62 63 62 62 61 61 62 62 59 60 60 63 65 66 66 65 64 64 63 63 63 63 63 63 60 58 59 61 63 65
60 61 62 61 62 60 60 59 58 58 61 60 59 58 56 59 65 63 65 63 64 64 63 62 62 62 63 61 61 56 58 61 63
60 59 61 60 61 60 59 60 59 59 57 61 61 60 58 55 56 64 64 64 63 62 63 63 62 62 62 59 57 55 57 60 62
59 59 59 59 60 59 58 58 58 59 59 58 58 59 59 58 55 53 59 63 64 64 63 64 63 62 62 61 58 55 56 58 60
MSLP
1019.67 1019.54 1019.30 1019.06 1018.82 1018.58 1018.41 1018.22 1018.09 1017.97 1017.73 1017.49 1017.30 1017.14 1017.04 1016.70 1016.05 1015.93 1015.86 1015.93 1015.93 1015.80 1015.54 1015.34 1015.20 1015.05 1014.91 1014.87 1014.84 1014.83 1014.89 1014.98 1015.01
1019.87 1019.70 1019.47 1019.25 1019.04 1018.81 1018.65 1018.52 1018.36 1018.18 1017.95 1017.73 1017.56 1017.42 1017.26 1016.57 1016.13 1015.96 1015.91 1015.80 1016.03 1015.73 1015.45 1015.32 1015.20 1015.10 1015.00 1014.78 1014.78 1014.79 1014.88 1014.88 1014.93
1020.12 1019.89 1019.76 1019.54 1019.30 1019.08 1018.87 1018.73 1018.58 1018.42 1018.18 1017.96 1017.80 1017.68 1017.43 1016.52 1016.23 1016.11 1015.87 1016.15 1015.79 1015.43 1015.50 1015.50 1015.38 1015.30 1015.16 1015.06 1014.80 1014.80 1014.85 1014.83 1014.88
1020.51 1020.28 1020.10 1019.88 1019.63 1019.39 1019.19 1019.00 1018.87 1018.65 1018.42 1018.19 1018.00 1017.80 1017.52 1016.55 1016.47 1016.28 1015.97 1016.34 1015.80 1015.63 1015.67 1015.65 1015.53 1015.42 1015.31 1015.26 1015.13 1014.94 1014.86 1014.89 1014.78
1020.82 1020.44 1020.49 1020.21 1019.96 1019.68 1019.48 1019.32 1019.16 1018.91 1018.68 1018.45 1018.20 1017.84 1017.34 1016.49 1016.50 1016.35 1016.53 1016.57 1016.12 1015.89 1015.82 1015.77 1015.62 1015.54 1015.42 1015.33 1015.27 1015.13 1014.92 1014.91 1014.88
1020.49 1021.00 1020.83 1020.53 1020.28 1019.99 1019.73 1019.57 1019.38 1019.00 1018.55 1018.53 1018.31 1017.81 1016.88 1016.57 1016.49 1016.42 1017.05 1016.76 1016.29 1016.12 1016.01 1015.88 1015.78 1015.58 1015.44 1015.31 1015.19 1015.12 1014.93 1014.85 1014.84
1020.86 1020.91 1020.86 1020.61 1020.40 1020.04 1019.83 1019.63 1019.27 1018.69 1018.29 1017.95 1017.77 1017.29 1017.07 1016.83 1016.72 1016.64 1017.18 1016.73 1016.45 1016.31 1016.21 1016.07 1015.90 1015.63 1015.42 1015.26 1015.06 1014.97 1014.87 1014.81 1014.68
1020.65 1020.42 1020.33 1020.17 1020.17 1019.59 1019.39 1019.09 1018.90 1018.73 1018.46 1018.12 1017.72 1017.56 1017.30 1016.97 1016.86 1017.25 1017.36 1016.98 1016.62 1016.39 1016.24 1016.06 1015.86 1015.64 1015.42 1015.18 1015.04 1014.88 1014.80 1014.71 1014.63
1020.70 1020.55 1020.51 1020.25 1020.03 1019.70 1019.46 1019.19 1018.95 1018.68 1018.37 1018.07 1017.72 1017.46 1017.28 1017.08 1016.93 1017.29 1017.53 1017.22 1016.90 1016.69 1016.42 1016.25 1016.12 1015.82 1015.53 1015.35 1015.20 1015.01 1014.88 1014.79 1014.65
1020.90 1020.76 1020.60 1020.48 1020.32 1020.03 1019.61 1019.35 1019.02 1018.70 1018.45 1018.10 1017.83 1017.50 1017.25 1017.18 1017.01 1016.96 1017.85 1017.56 1017.25 1017.11 1016.86 1016.61 1016.39 1016.10 1015.80 1015.55 1015.33 1015.24 1015.07 1014.88 1014.69
1021.21 1020.90 1020.82 1020.66 1020.54 1020.29 1019.92 1019.63 1019.23 1018.83 1018.52 1018.14 1017.97 1017.71 1017.52 1017.41 1017.18 1016.95 1017.63 1017.88 1017.73 1017.44 1017.20 1017.00 1016.72 1016.44 1016.12 1015.82 1015.60 1015.46 1015.26 1015.05 1014.79
1021.40 1021.08 1020.89 1020.85 1020.69 1020.31 1019.91 1019.61 1019.11 1018.69 1018.41 1018.11 1017.96 1017.80 1017.83 1017.62 1017.39 1017.36 1017.44 1017.47 1017.85 1017.88 1017.69 1017.43 1017.11 1016.77 1016.42 1016.16 1015.86 1015.69 1015.46 1015.22 1014.94
1021.41 1021.10 1021.02 1020.96 1020.61 1020.32 1019.95 1019.66 1019.24 1018.92 1018.57 1018.15 1017.96 1017.71 1017.64 1017.59 1017.80 1018.47 1018.33 1018.05 1017.57 1017.58 1017.89 1017.75 1017.47 1017.10 1016.73 1016.40 1016.17 1015.99 1015.74 1015.36 1014.99
1021.68 1021.52 1021.40 1021.21 1020.92 1020.57 1020.36 1019.90 1019.71 1019.23 1018.98 1018.49 1018.23 1018.00 1018.07 1018.06 1018.40 1018.80 1018.61 1018.51 1018.18 1017.80 1017.71 1017.80 1017.68 1017.41 1017.11 1016.76 1016.52 1016.25 1015.96 1015.55 1015.18
1021.91 1021.76 1021.69 1021.46 1021.13 1020.84 1020.49 1020.24 1019.98 1019.77 1019.44 1018.89 1018.54 1018.36 1018.49 1018.55 1018.80 1018.66 1018.41 1018.40 1018.42 1018.19 1017.83 1017.44 1017.22 1017.50 1017.33 1017.09 1016.73 1016.43 1016.07 1015.60 1015.19
1022.22 1021.99 1021.84 1021.73 1021.52 1021.28 1020.97 1020.59 1020.23 1019.83 1019.71 1018.97 1018.66 1018.52 1018.47 1018.44 1018.42 1018.34 1018.41 1018.44 1018.36 1018.37 1018.18 1017.73 1017.57 1017.25 1017.29 1017.16 1017.00 1016.63 1016.23 1015.66 1015.20
1022.37 1022.22 1022.13 1022.05 1021.66 1021.42 1021.26 1021.08 1020.52 1020.18 1020.18 1019.61 1019.20 1018.51 1018.41 1018.30 1018.36 1018.26 1018.27 1018.31 1018.30 1018.20 1018.11 1018.24 1018.17 1017.89 1017.43 1017.28 1017.11 1016.89 1016.44 1015.80 1015.26
1022.75 1022.65 1022.50 1022.32 1022.08 1021.87 1021.70 1021.49 1021.16 1020.61 1020.37 1020.36 1019.92 1019.09 1018.65 1018.60 1018.34 1018.40 1018.41 1018.30 1018.01 1018.06 1018.22 1018.11 1018.23 1018.18 1017.83 1017.47 1017.07 1017.11 1016.66 1015.97 1015.38
1022.98 1022.86 1022.70 1022.49 1022.28 1022.13 1022.02 1021.83 1021.69 1021.30 1020.90 1020.61 1020.55 1020.31 1020.14 1019.25 1018.31 1018.04 1018.26 1018.33 1018.10 1017.98 1017.79 1018.12 1018.29 1017.98 1017.88 1017.73 1017.47 1017.34 1016.81 1016.12 1015.51
1023.04 1022.94 1022.83 1022.68 1022.58 1022.51 1022.35 1022.13 1021.93 1021.75 1021.32 1021.12 1020.84 1020.57 1020.36 1020.27 1019.57 1018.43 1017.93 1017.98 1017.95 1018.02 1017.85 1017.64 1017.85 1018.08 1017.89 1017.55 1017.41 1017.40 1016.95 1016.31 1015.67
Wind_Speed
9 10 10 10 11 10 10 10 9 10 9 9 9 8 7 9 5 5 4 7 6 8 7 7 8 9 8 9 9 8 8 10 9
9 9 10 11 11 11 11 11 11 10 10 9 9 9 8 7 5 5 4 4 6 7 6 6 6 6 8 8 8 8 9 10 11
10 10 11 11 11 11 11 11 11 10 10 10 10 9 9 4 5 5 4 8 8 2 5 5 6 7 7 9 9 5 8 8 9
9 10 11 11 11 11 11 11 10 10 10 9 9 7 6 6 4 5 4 12 8 5 5 6 7 7 7 7 7 5 6 6 6
8 7 11 12 11 11 11 11 11 10 10 9 9 7 7 5 3 3 6 9 7 6 6 7 8 8 8 7 7 7 6 6 8
6 9 10 11 10 10 11 11 11 11 1 4 8 10 4 5 4 3 8 8 6 6 7 7 8 8 7 7 7 7 6 7 8
5 4 5 6 9 7 8 9 8 6 6 5 4 5 6 4 4 4 9 7 7 7 7 8 8 9 8 9 8 6 6 7 7
4 4 4 5 5 5 6 6 5 7 6 5 5 5 5 4 3 7 9 7 5 6 7 8 8 7 7 6 7 7 8 10 9
5 4 5 5 5 6 5 4 6 6 6 6 6 5 4 3 2 7 9 9 9 10 11 12 12 13 11 9 8 9 9 7 7
5 5 4 5 5 5 6 6 6 6 7 6 6 5 4 2 1 4 9 10 10 10 11 12 12 13 12 11 11 11 10 10 10
4 4 5 5 5 5 5 6 6 6 7 7 6 6 4 2 2 3 6 9 10 10 10 11 11 11 12 13 13 12 13 12 13
5 4 5 5 5 6 5 5 5 5 5 5 5 4 4 2 4 3 4 4 7 9 10 10 10 11 11 11 12 13 14 14 15
4 3 4 4 4 4 5 5 5 5 5 4 4 4 4 5 5 6 4 3 4 2 9 9 9 10 11 11 12 13 15 16 17
4 4 5 6 5 5 5 5 6 6 6 4 4 4 4 4 6 4 5 5 5 4 3 4 6 9 10 11 12 13 14 15 16
4 4 5 5 4 5 5 6 5 5 6 3 1 3 4 3 2 2 3 6 6 6 6 4 3 6 9 11 12 14 14 15 15
5 4 5 5 5 6 7 5 6 6 8 3 1 2 3 3 1 0 2 6 6 7 6 4 3 2 4 8 11 14 15 15 15
4 5 4 5 4 6 6 7 4 4 6 4 3 2 3 3 2 2 0 5 4 4 4 5 5 5 4 6 9 14 15 16 16
4 4 4 4 4 4 5 6 6 4 4 7 4 3 3 6 1 2 1 6 3 3 3 1 4 6 7 8 8 15 16 16 16
3 3 3 4 3 4 4 4 4 5 5 2 4 3 4 3 4 2 2 5 4 5 2 2 2 4 5 8 6 15 16 16 16
2 3 3 4 3 4 4 4 4 3 4 3 4 3 3 3 4 6 5 5 4 5 3 3 3 5 7 7 8 14 16 16 16
Wind_Direction
36 30 29 28 25 33 28 22 29 26 23 21 19 16 4 302 351 328 320 285 341 307 308 305 297 310 311 288 266 267 261 263 262
35 31 29 31 28 25 27 27 25 21 18 19 20 17 357 340 6 353 345 327 306 293 295 27 32 27 13 351 271 260 260 258 258
36 38 33 28 25 24 22 21 20 17 16 17 15 10 352 324 10 7 11 4 296 277 46 18 11 5 5 7 14 289 285 280 271
38 35 31 24 22 22 20 19 16 14 14 13 9 5 347 320 11 348 353 357 358 16 13 358 345 340 351 355 357 358 357 348 326
37 20 31 24 21 19 17 15 10 4 5 5 360 338 264 8 358 11 27 341 345 353 359 350 345 337 339 338 331 327 331 324 323
39 48 28 26 20 19 18 12 4 346 317 1 342 295 358 357 359 360 8 340 354 8 360 348 343 338 334 328 325 321 325 320 314
16 53 28 32 8 20 8 6 348 338 354 355 279 353 342 348 359 35 353 344 9 9 358 348 340 329 326 321 314 315 318 319 314
27 16 14 4 5 7 360 2 8 357 354 347 342 338 331 340 355 50 1 3 8 14 11 13 6 351 331 319 324 329 326 309 311
18 16 5 4 0 356 359 353 352 342 341 338 330 324 321 326 356 87 23 27 22 17 16 14 7 2 12 358 13 17 13 344 329
8 11 8 4 353 354 354 350 343 335 339 337 329 317 310 330 78 97 42 37 35 20 13 15 8 2 6 12 25 17 11 3 356
10 8 12 7 358 353 349 346 339 335 340 340 339 322 304 264 166 103 96 57 36 19 16 11 11 2 357 4 6 3 6 359 356
7 15 12 9 355 348 349 346 340 340 344 352 359 350 349 175 139 99 45 96 84 37 17 7 7 5 359 3 1 1 0 355 350
22 16 14 357 354 355 352 357 346 350 353 354 22 45 91 120 91 57 41 15 12 81 24 4 7 6 4 0 4 359 357 350 342
12 14 15 2 3 10 360 3 355 356 356 356 34 55 75 83 80 70 45 20 5 346 39 4 27 16 15 12 8 3 358 354 346
15 26 21 7 9 15 11 7 5 2 349 335 23 63 101 94 100 87 39 22 350 338 327 312 92 38 21 13 8 1 355 351 348
23 25 21 11 19 15 10 355 4 12 359 326 157 182 171 151 193 351 15 9 353 342 333 324 337 8 13 11 4 359 352 347 345
31 23 23 18 12 25 18 14 358 20 16 3 301 319 184 220 333 227 285 357 343 351 7 352 356 346 340 355 352 356 347 342 341
31 31 18 26 15 19 14 10 14 5 30 22 346 313 343 329 195 237 322 348 337 348 315 15 360 348 342 337 349 355 344 338 336
50 33 19 25 19 20 11 10 1 341 9 338 18 6 339 331 314 211 313 328 326 328 271 280 336 355 342 334 342 347 340 337 335
40 11 4 11 5 8 4 1 1 359 342 351 334 324 316 302 300 306 333 321 332 330 283 243 254 332 339 337 348 341 339 339 337